Vorticity
nan nan nan nan nan nan nan nan nan nan nan nan nan nan nan nan nan nan nan nan nan nan nan nan nan nan nan nan nan nan nan nan nan nan nan nan nan nan nan nan nan nan nan nan nan nan nan nan nan nan nan nan nan nan nan nan nan nan nan nan nan nan nan nan nan nan nan nan nan nan nan nan nan nan nan nan nan nan nan nan nan nan nan nan nan nan
nan 6 7 7 4 4 9 12 10 8 7 7 7 7 6 6 8 10 12 11 9 8 8 9 9 9 9 11 11 10 10 9 9 8 8 8 8 8 8 9 9 8 8 8 9 10 11 12 12 12 12 11 10 9 9 10 11 12 12 12 12 13 14 15 14 13 11 9 8 8 8 8 8 8 8 7 7 7 7 7 7 7 7 7 8 nan
nan 7 8 9 8 5 7 13 13 11 9 8 7 5 4 6 7 8 9 10 11 10 9 8 8 10 11 12 13 12 10 9 8 7 7 7 7 7 8 8 9 8 9 9 10 11 12 13 13 13 12 11 10 10 11 11 11 11 11 10 9 9 10 10 10 9 9 8 8 8 8 8 8 8 8 7 7 7 7 7 7 8 8 8 9 nan
nan 8 9 11 11 9 7 9 12 12 12 9 8 7 7 8 9 8 8 8 9 10 10 9 9 10 13 13 12 11 8 8 7 7 6 7 7 8 9 9 10 10 10 10 11 12 13 13 13 13 12 11 11 11 11 12 11 11 10 9 7 7 7 7 7 7 8 9 9 9 9 9 8 8 8 8 8 8 8 8 8 8 9 9 9 nan
nan 8 10 11 11 12 10 10 10 10 9 9 9 10 11 10 10 9 9 9 9 10 11 12 11 10 9 8 7 6 6 7 8 8 9 10 10 10 11 12 12 11 11 11 12 12 13 13 13 12 11 11 11 11 11 11 11 11 10 9 8 8 8 8 8 8 9 10 10 10 9 9 8 8 8 8 8 8 8 8 9 9 10 10 10 nan
nan 10 11 10 10 11 12 12 11 9 8 9 10 11 12 11 10 9 9 10 11 11 11 11 11 9 7 5 4 6 9 11 12 13 14 14 14 14 14 14 13 13 12 12 12 12 13 12 11 11 10 11 11 11 11 11 11 11 10 10 10 10 10 10 10 10 10 10 10 9 9 8 8 9 9 9 9 9 9 9 10 10 11 12 12 nan
nan 11 10 10 9 9 10 11 10 9 8 9 10 11 11 11 11 9 8 8 9 10 10 9 9 9 9 8 8 11 16 18 20 21 19 18 17 16 15 15 14 13 12 12 11 11 12 11 10 10 10 10 11 10 10 10 10 10 10 10 11 11 11 10 10 10 10 10 9 9 9 9 9 9 9 10 10 10 11 11 11 11 12 12 11 nan
nan 9 9 8 8 9 9 10 9 9 7 8 8 9 10 10 10 10 10 9 9 9 9 9 10 10 11 11 13 15 16 19 21 22 21 20 18 16 15 14 13 12 11 11 11 11 11 11 11 10 10 10 10 10 10 10 10 10 11 10 10 10 10 10 9 9 9 9 9 9 9 9 10 10 11 11 11 11 11 12 11 11 10 9 9 nan
nan 8 9 8 8 8 9 9 9 8 8 8 8 8 9 8 8 9 11 11 11 10 9 9 9 10 10 11 13 14 13 13 12 12 12 13 12 10 10 12 13 13 12 11 11 11 11 11 11 10 10 10 10 10 10 10 10 10 10 10 9 9 9 8 8 9 9 9 9 9 10 11 11 11 12 12 12 12 12 11 11 9 8 8 7 nan
nan 9 9 9 9 8 8 9 9 9 9 9 9 9 10 9 9 9 9 10 10 10 9 8 8 9 10 12 12 12 12 12 11 9 8 7 6 6 8 10 12 12 12 13 13 13 12 12 11 10 10 10 10 10 11 11 11 10 10 9 9 8 8 8 8 8 9 9 10 11 12 12 12 13 13 13 12 12 11 10 9 8 8 8 8 nan
nan 11 10 10 10 10 9 9 9 10 12 12 12 12 12 12 11 10 9 9 8 8 7 8 9 10 11 11 11 11 12 13 14 15 15 13 13 14 15 16 15 14 15 16 16 16 14 13 11 10 10 10 10 11 11 11 10 10 9 8 8 8 8 8 8 9 10 10 11 12 12 13 13 12 12 12 11 10 9 8 8 8 9 9 10 nan
nan 11 11 10 9 9 10 10 10 11 13 14 14 13 13 13 10 8 8 6 6 6 8 10 11 11 10 10 11 12 12 12 12 14 16 17 19 20 21 21 20 19 20 20 20 18 16 13 12 11 11 11 12 11 11 11 10 9 8 8 8 8 8 8 9 10 11 11 11 12 12 12 11 11 10 9 9 8 8 8 9 9 10 10 10 nan
nan 8 8 8 8 9 10 10 11 12 12 12 11 10 11 11 9 7 6 5 6 8 11 11 11 11 12 10 10 10 11 11 11 11 12 13 15 16 16 16 16 17 17 17 17 17 16 14 14 13 13 12 12 12 11 10 9 8 7 7 8 8 9 9 10 11 11 11 11 11 11 10 9 9 8 8 8 8 9 9 10 10 10 10 11 nan
nan 8 7 8 10 11 11 11 10 10 10 9 9 9 8 7 6 6 6 7 9 10 11 10 10 11 13 12 11 9 9 11 12 12 10 10 10 10 10 11 11 11 11 12 12 12 13 14 15 15 15 13 13 12 11 9 7 6 7 7 8 9 10 10 10 11 11 10 10 9 9 9 8 8 8 9 9 10 10 10 10 10 10 10 12 nan
nan 11 10 10 10 10 10 11 10 10 9 9 8 8 7 6 6 6 7 9 10 12 12 12 12 12 12 11 11 11 11 11 11 11 9 9 9 9 10 10 10 10 9 10 10 10 11 12 12 13 14 12 11 10 8 6 6 7 8 8 9 10 10 10 10 10 9 9 8 8 8 8 9 9 9 10 10 11 10 10 10 11 11 13 15 nan
nan 13 12 11 10 10 10 11 11 10 10 9 8 7 6 7 8 9 10 12 13 14 14 14 14 14 13 12 11 12 13 13 12 10 9 9 8 9 10 11 11 10 9 9 10 10 11 11 11 11 11 10 8 6 5 5 5 7 9 9 10 10 10 9 9 8 8 8 8 8 9 9 9 10 10 11 11 11 10 10 11 12 14 16 17 nan
nan 12 12 12 11 11 11 12 11 9 8 7 7 7 7 8 10 12 12 13 13 13 12 12 12 13 12 12 13 13 14 14 13 11 9 8 8 8 11 12 11 10 9 9 9 10 10 11 11 10 9 6 5 5 4 5 7 9 9 10 10 10 9 8 8 8 8 8 9 9 10 10 10 10 11 11 10 10 10 11 13 15 16 17 16 nan
nan 10 11 11 11 10 10 10 9 7 6 7 8 9 10 11 11 12 12 12 11 9 9 9 9 9 8 8 9 9 12 13 13 11 10 8 7 8 11 12 11 10 9 10 10 10 10 10 9 8 5 3 4 5 5 6 8 9 10 10 9 9 8 8 8 8 8 9 10 10 10 10 11 11 11 10 10 11 12 14 15 16 15 13 10 nan
nan 8 9 9 9 7 7 7 6 7 8 9 10 11 12 13 13 13 13 12 11 11 11 10 9 8 8 6 4 4 9 13 13 12 11 8 7 8 11 13 11 10 10 11 11 11 10 9 8 7 5 5 5 5 6 8 9 10 10 9 9 8 7 8 8 9 9 10 10 11 11 11 11 11 10 10 11 13 15 16 16 13 11 9 8 nan
nan 7 7 7 7 8 9 8 8 8 9 12 14 16 16 15 15 15 15 13 13 13 12 12 11 11 11 9 7 7 11 15 15 13 11 9 9 10 13 14 12 11 10 11 11 11 10 10 10 9 8 6 6 5 7 8 9 10 10 8 8 7 7 8 8 9 10 11 11 11 11 11 11 10 10 11 13 15 16 15 13 11 9 8 8 nan
nan 8 7 7 8 10 11 9 8 9 12 15 17 17 16 14 13 13 12 11 11 12 13 13 13 12 10 10 10 10 11 12 12 11 10 10 10 11 14 15 14 12 11 11 11 11 10 9 10 10 8 5 5 6 8 9 10 10 9 7 7 6 7 8 9 10 11 11 11 11 11 11 11 11 10 11 12 13 13 11 10 9 8 8 8 nan
nan 10 9 11 14 14 11 9 9 11 13 15 16 14 11 9 9 8 8 9 9 11 11 11 10 9 7 8 8 9 9 10 9 9 9 10 10 11 13 15 14 12 11 11 10 10 9 9 9 7 5 5 6 8 9 10 10 9 7 6 6 7 8 9 10 11 11 11 11 11 11 11 11 10 10 10 10 10 10 9 8 8 8 8 8 nan
nan 12 13 16 17 15 12 11 10 10 11 12 12 11 8 6 7 7 8 8 9 9 10 9 8 8 8 9 10 11 12 11 10 10 9 9 10 12 14 14 13 11 10 10 10 9 9 9 8 7 7 7 9 10 10 10 8 7 5 5 6 7 9 10 11 11 11 11 11 12 11 11 11 10 9 9 9 8 8 8 7 7 7 7 8 nan
nan 12 12 11 10 9 7 6 6 7 8 9 10 10 8 7 8 8 9 9 10 10 10 9 9 10 13 13 13 15 15 14 11 9 8 9 10 11 12 13 11 10 9 9 9 9 9 9 9 9 10 11 12 12 10 8 6 4 4 5 6 8 9 10 10 11 11 11 12 12 11 11 11 10 10 9 9 8 8 7 7 6 6 7 9 nan
nan 6 3 -2 -4 -3 -1 -0 1 4 7 10 11 11 10 10 11 12 13 13 12 11 9 9 10 11 12 13 14 16 19 17 12 8 6 8 10 11 12 12 12 10 9 9 9 9 9 9 9 10 11 13 13 12 8 6 4 3 3 5 7 8 9 9 10 10 11 11 12 11 11 11 10 10 10 10 9 9 8 8 7 7 7 9 11 nan
nan -3 -7 -9 -7 -4 0 3 4 6 12 16 14 12 12 13 15 15 15 14 13 12 10 10 10 10 11 12 13 14 17 18 14 8 5 7 10 12 14 13 12 11 10 9 9 8 8 8 9 10 11 13 12 10 6 4 3 3 4 7 8 9 9 9 9 10 11 11 11 11 11 10 10 10 10 10 10 10 9 8 8 8 10 13 16 nan
nan -0 0 3 6 9 11 11 11 11 14 17 16 17 18 17 16 14 13 13 12 12 11 11 11 12 13 12 11 11 13 15 14 11 9 10 11 12 13 12 11 11 11 10 9 8 8 10 10 11 11 12 11 9 6 4 4 5 7 9 9 9 9 9 10 10 10 11 10 10 10 10 10 10 10 10 10 10 10 9 9 11 14 19 23 nan
nan 12 13 14 15 16 16 16 15 14 14 14 16 22 27 23 17 14 13 12 12 12 12 11 11 12 12 10 10 10 13 13 11 11 14 15 14 12 11 9 9 10 11 11 10 10 12 13 12 12 11 10 9 8 8 8 9 10 11 11 11 10 10 10 10 10 10 10 10 10 9 9 9 9 10 10 10 10 10 10 12 15 21 25 24 nan
nan 17 18 19 19 19 19 18 16 13 12 14 18 25 28 23 17 14 13 13 13 14 13 12 12 11 10 10 11 12 13 9 8 11 16 17 14 11 8 8 8 9 10 11 12 13 15 15 14 13 11 9 9 9 10 11 13 14 14 13 13 12 11 10 10 10 10 10 10 9 9 8 8 8 9 9 9 10 9 11 16 22 24 20 16 nan
nan 19 20 20 20 21 20 18 14 11 10 13 18 23 24 20 16 13 13 13 14 14 14 13 13 12 13 14 16 15 10 5 6 11 15 15 12 9 7 8 9 9 10 11 12 13 13 13 13 11 10 9 9 9 10 11 13 14 13 14 14 12 11 10 10 11 11 10 10 9 8 8 8 8 8 8 8 9 9 12 18 23 21 14 12 nan
nan 17 18 17 18 18 17 15 13 11 10 12 16 18 19 18 15 14 13 14 14 14 13 13 13 13 16 18 17 15 7 3 5 11 16 15 11 7 8 9 10 10 9 9 10 10 11 11 10 9 8 9 10 10 10 11 11 11 11 12 12 10 9 10 11 12 12 10 10 9 9 9 8 8 8 8 8 8 9 12 17 20 17 12 11 nan
nan 14 13 13 14 15 15 15 14 13 12 11 12 12 13 14 14 14 13 13 13 13 13 13 13 13 15 16 15 14 8 3 2 9 17 17 12 8 8 9 9 10 9 9 8 9 9 9 8 7 8 10 11 11 11 11 10 10 10 11 10 8 8 11 13 13 12 10 10 10 10 10 9 9 9 9 9 9 8 10 14 17 15 12 11 nan
nan 12 11 12 13 14 15 15 15 13 12 11 10 10 10 11 11 13 13 12 12 12 12 12 12 12 13 13 13 12 9 4 1 6 16 19 14 10 8 8 9 10 11 11 10 10 9 7 7 8 9 11 12 12 11 11 11 10 10 10 10 8 10 12 13 12 11 11 11 10 10 11 11 11 11 11 10 10 8 9 12 14 13 13 11 nan
nan 12 13 14 15 15 15 15 13 12 11 10 10 10 10 10 10 11 12 12 11 11 12 12 12 12 13 13 12 10 7 3 2 6 15 18 14 10 8 9 9 10 11 12 11 12 10 8 8 8 10 11 12 12 12 11 11 10 10 10 10 10 10 11 11 10 10 11 12 11 11 11 11 12 13 11 10 9 7 8 10 13 14 13 11 nan
nan 13 15 15 16 15 14 12 11 10 10 9 9 10 10 11 11 10 11 11 11 11 11 11 11 12 13 13 11 10 7 4 2 7 14 16 14 11 10 9 9 9 10 10 11 12 10 8 8 9 10 11 12 12 11 10 10 10 10 10 10 10 9 9 10 9 10 11 11 10 11 11 11 11 10 7 6 6 7 11 13 14 15 13 11 nan
nan 14 16 16 15 13 11 9 9 8 9 9 9 9 9 10 10 10 10 10 10 9 10 11 11 11 12 12 11 10 8 6 5 8 13 15 13 12 10 8 7 9 10 10 10 10 9 8 9 10 12 13 12 11 9 8 8 9 10 10 10 10 9 9 9 10 10 10 10 10 10 10 10 10 6 3 5 8 12 15 16 17 15 14 12 nan
nan 15 15 14 13 11 9 8 8 8 8 8 8 8 9 10 10 10 10 9 9 8 8 9 9 9 10 12 11 10 9 7 7 8 12 15 14 12 10 7 7 9 10 10 9 10 10 10 10 12 13 12 11 9 6 7 8 9 9 9 10 10 10 9 9 10 10 10 10 9 9 10 10 9 6 7 13 17 19 20 20 17 15 14 14 nan
nan 14 13 13 11 10 8 8 8 8 8 8 8 8 9 9 9 11 11 10 9 8 8 9 9 8 8 8 9 9 9 8 8 9 12 15 15 13 11 9 8 9 10 10 9 10 10 10 11 12 12 10 8 6 7 8 8 8 9 10 10 10 10 9 10 11 11 10 10 9 10 11 11 11 10 14 17 18 19 18 15 13 14 16 16 nan
nan 12 11 11 10 9 9 8 8 8 8 8 9 9 9 9 10 11 11 10 9 8 9 10 11 11 10 7 6 7 9 9 10 11 12 13 13 13 11 10 9 9 10 11 11 10 10 10 10 9 9 8 8 8 10 9 8 8 9 11 12 11 9 9 10 11 11 10 10 11 12 12 11 11 11 12 12 12 13 12 11 11 14 16 15 nan
nan 10 9 8 9 9 9 8 8 8 8 8 9 10 12 11 11 10 10 10 9 8 8 12 14 14 13 11 9 8 9 10 10 11 12 11 11 10 10 10 10 10 11 12 11 11 10 9 9 8 9 9 8 8 8 7 6 6 10 14 12 7 6 10 11 12 11 11 11 11 11 10 10 10 10 10 10 11 11 10 9 8 11 13 13 nan
nan 10 9 8 7 8 8 8 9 9 10 10 11 11 11 11 11 11 11 10 10 9 9 12 14 15 13 12 11 9 9 9 9 11 11 10 10 10 10 10 10 10 11 11 11 10 11 10 10 10 9 9 8 8 8 6 6 7 13 14 10 6 7 10 12 12 11 11 10 10 10 10 10 11 11 11 12 11 10 8 8 8 11 11 11 nan
nan 10 9 9 8 8 7 8 9 10 12 12 11 10 10 10 10 11 11 10 10 9 10 12 12 13 13 12 10 9 9 9 9 10 11 12 13 12 11 10 10 10 10 11 12 12 12 11 11 10 9 9 10 10 8 7 9 11 13 11 10 12 13 12 11 10 10 10 10 9 10 12 11 11 11 12 13 12 11 10 9 10 12 12 11 nan
nan 9 9 9 9 9 9 10 11 11 11 11 10 10 10 10 10 10 11 11 10 10 11 12 12 12 12 11 10 10 9 9 9 10 11 13 14 15 14 13 13 12 11 11 11 12 12 12 12 11 10 10 9 8 8 9 10 10 10 10 13 18 16 9 7 8 10 11 11 10 10 11 11 11 11 13 13 13 12 12 13 14 15 13 12 nan
nan 10 10 10 10 11 11 11 11 10 10 10 10 10 9 9 10 12 13 11 10 11 12 13 13 13 12 10 10 11 11 10 10 11 10 11 14 15 15 16 16 15 12 10 9 9 10 11 11 11 11 12 11 10 10 9 9 9 8 9 12 15 12 8 6 8 10 10 10 9 8 9 11 12 13 13 13 13 13 13 14 13 13 13 13 nan
nan 10 11 11 11 11 11 11 11 11 10 10 10 10 9 9 11 13 13 11 11 11 12 13 15 14 11 10 11 11 11 10 11 11 8 7 11 15 17 18 18 17 14 11 9 8 8 9 9 9 11 12 12 12 10 9 9 9 8 9 12 13 12 10 9 10 10 10 9 7 7 10 12 13 13 12 12 12 11 11 11 11 12 12 12 nan
nan 11 11 11 10 9 10 11 12 11 11 10 10 10 10 10 12 11 11 12 12 12 12 14 15 13 10 10 11 11 10 10 10 10 8 7 9 12 14 15 16 17 16 13 11 9 7 7 7 8 10 11 12 11 11 11 11 10 9 10 12 13 12 11 10 10 10 9 8 6 7 11 14 14 11 10 11 11 12 11 10 11 11 12 12 nan
nan 11 11 11 10 10 10 10 11 11 10 10 10 10 10 10 11 11 10 11 12 12 12 13 12 11 10 11 11 10 10 10 10 10 9 8 8 10 12 12 13 16 17 15 13 11 9 8 8 8 8 8 10 9 9 10 11 11 11 11 12 12 12 10 9 9 9 9 7 5 9 14 14 12 10 10 11 12 12 11 10 11 12 12 12 nan
nan 11 11 11 10 10 10 10 10 10 10 11 10 10 9 9 10 13 12 11 12 12 12 11 11 10 10 10 10 10 11 12 11 10 9 9 9 9 10 11 12 14 17 18 17 16 15 13 11 7 4 6 7 8 7 9 11 12 12 12 12 11 10 9 8 8 9 7 5 7 13 15 12 10 9 11 11 10 10 10 11 11 12 11 11 nan
nan 10 11 11 10 10 10 10 10 10 10 11 11 11 9 8 9 14 13 11 12 12 11 10 10 10 10 10 9 9 11 13 12 11 10 10 10 9 9 10 12 13 15 18 20 22 21 19 15 10 4 3 5 6 8 10 11 13 13 12 12 11 11 9 8 8 8 6 7 11 15 15 11 10 10 10 9 9 10 11 11 11 11 11 11 nan
nan 10 10 11 10 10 9 9 9 10 10 10 11 11 10 10 10 11 12 11 11 11 10 9 10 11 10 10 10 10 12 13 12 11 10 11 10 10 9 10 11 13 14 15 16 18 21 23 21 17 11 5 4 7 10 11 12 13 13 12 12 11 10 9 8 8 8 9 9 11 14 15 13 12 11 10 9 10 11 11 10 10 9 9 9 nan
nan nan nan nan nan nan nan nan nan nan nan nan nan nan nan nan nan nan nan nan nan nan nan nan nan nan nan nan nan nan nan nan nan nan nan nan nan nan nan nan nan nan nan nan nan nan nan nan nan nan nan nan nan nan nan nan nan nan nan nan nan nan nan nan nan nan nan nan nan nan nan nan nan nan nan nan nan nan nan nan nan nan nan nan nan nan
CAPE
nan nan nan nan nan nan nan nan nan nan nan nan nan nan nan nan nan nan nan nan nan nan nan nan nan nan nan nan nan nan nan nan nan nan nan 1 12 12 24 35 35 47 56 65 65 79 94 107 107 119 132 144 147 147 137 126 126 124 127 138 138 163 197 227 227 265 266 265 260 260 245 232 231 231 238 251 266 266 256 234 234 220 212 210 210 220
nan nan nan nan nan nan nan nan nan nan nan nan nan nan nan nan nan nan nan nan nan nan nan nan nan nan nan nan nan nan nan nan nan nan 0 6 19 19 30 44 44 53 63 71 71 85 93 106 106 114 126 121 115 115 104 105 105 102 112 133 133 169 195 209 209 225 226 232 226 226 230 231 231 231 236 236 229 229 214 199 199 204 210 223 223 240
nan nan nan nan nan nan nan nan nan nan nan nan nan nan nan nan nan nan nan nan nan nan nan nan nan nan nan nan nan nan nan nan 3 3 7 15 24 24 37 51 51 62 72 80 80 80 92 101 101 113 111 100 92 92 87 87 87 93 104 129 129 149 161 166 166 164 172 175 187 187 199 207 207 207 206 205 199 199 185 190 190 208 227 244 244 251
nan nan nan nan nan nan nan nan nan nan nan nan nan nan nan nan nan nan nan nan nan nan nan nan nan nan nan nan nan nan nan 3 9 9 16 22 29 29 42 52 52 68 78 81 81 84 87 99 99 101 96 82 76 76 75 78 78 84 90 107 107 114 123 117 117 118 124 136 148 148 157 171 170 170 169 163 168 168 174 198 198 229 240 250 250 261
nan nan nan nan nan nan nan nan nan nan nan nan nan nan nan nan nan nan nan nan nan nan nan nan nan nan nan nan nan nan 1 6 12 12 20 26 33 33 40 51 51 62 71 73 73 78 85 91 91 87 82 75 67 67 66 67 67 65 71 78 78 85 91 98 98 99 100 107 114 114 127 133 139 139 150 155 161 161 178 195 195 232 243 255 255 274
nan nan nan nan nan nan nan nan nan nan nan nan nan nan nan nan nan nan nan nan nan nan nan nan nan nan nan nan 0 0 2 5 12 12 18 24 30 30 38 47 47 59 62 68 68 70 79 80 80 81 73 61 58 58 54 56 56 54 57 61 61 68 75 87 87 89 90 90 100 100 112 123 135 135 146 158 158 158 164 180 180 209 235 264 264 292
nan nan nan nan nan nan nan nan nan nan nan nan nan nan nan nan nan nan nan nan nan nan nan nan nan nan nan nan 1 1 2 5 12 12 16 17 27 27 33 44 44 49 57 63 63 68 78 84 84 70 63 56 46 46 44 46 46 45 54 58 58 67 69 75 75 75 73 72 88 88 100 113 131 131 144 150 145 145 144 161 161 210 248 294 294 315
nan nan nan nan nan 0 4 4 7 7 6 5 2 2 3 2 5 5 12 17 17 15 10 8 8 7 2 0 nan nan nan 0 1 1 5 10 25 25 31 41 41 48 49 57 57 70 79 74 74 56 40 23 23 23 26 27 27 36 36 30 30 29 23 26 26 34 45 63 81 81 94 96 104 104 113 116 124 124 148 172 172 220 257 251 251 247
nan nan nan 2 2 4 3 3 11 11 12 7 6 6 4 3 5 5 6 8 8 14 9 5 5 3 1 0 nan nan 0 6 3 3 2 1 10 10 29 47 47 46 41 48 48 57 59 56 56 37 18 13 13 13 15 17 17 17 13 11 11 11 13 22 22 37 52 67 78 78 79 88 95 95 109 123 148 148 166 176 176 185 190 187 187 191
nan nan nan 1 1 6 3 5 8 8 14 10 8 8 5 5 5 5 6 8 8 9 7 7 7 2 nan nan nan nan nan 6 25 25 25 9 28 28 23 18 18 16 18 26 26 30 37 29 29 10 4 3 4 4 5 5 5 5 6 5 5 10 17 25 25 40 53 56 64 64 77 88 110 110 132 153 166 166 165 147 147 131 136 152 152 174
0 1 2 0 0 3 6 8 10 10 12 9 7 7 9 13 16 16 13 12 12 12 8 8 8 3 nan nan nan nan 0 2 8 8 18 13 9 9 9 7 7 5 8 6 6 6 4 0 0 nan nan nan nan nan 1 2 2 3 5 8 8 15 23 28 28 43 47 55 65 65 83 105 127 127 155 158 153 153 133 112 112 105 113 133 133 162
2 4 1 0 0 7 10 10 10 10 13 15 21 21 23 16 22 22 17 10 10 9 9 5 5 3 1 nan nan nan 2 3 2 2 5 13 15 15 7 7 7 7 5 2 2 0 nan nan nan nan nan nan nan nan 0 1 1 3 7 13 13 21 28 30 30 37 45 61 75 75 100 123 134 134 135 132 120 120 107 101 101 103 118 132 132 155
11 12 7 10 10 13 13 9 14 14 12 27 39 39 43 23 9 9 14 12 12 11 6 0 0 2 4 1 1 1 2 5 7 7 5 13 16 16 11 12 12 10 5 1 1 0 nan nan nan nan nan nan nan nan 0 1 1 6 12 18 18 25 27 31 31 40 48 63 77 77 98 104 112 112 109 110 102 102 102 104 104 113 115 129 129 154
19 23 20 18 18 24 27 26 24 24 34 31 33 33 26 21 18 18 16 13 13 14 7 1 1 1 3 3 4 4 6 8 15 15 18 27 29 29 22 19 19 12 1 nan nan nan nan nan nan nan nan nan nan nan 0 2 2 8 15 20 20 22 26 32 32 39 53 65 71 71 79 92 95 95 100 102 102 102 100 102 102 110 122 146 146 190
25 26 24 22 22 30 30 28 31 31 30 17 14 14 17 18 17 17 14 13 13 15 11 4 4 3 5 5 3 3 6 10 23 23 22 25 38 38 27 20 20 7 0 nan nan 0 1 1 1 1 nan nan nan nan nan 3 3 12 16 19 19 20 25 32 32 40 48 54 61 61 74 83 92 92 96 101 97 97 95 102 102 122 147 185 185 222
29 27 24 28 28 29 32 29 22 22 13 14 16 16 23 17 17 17 19 15 15 13 7 6 6 6 8 9 5 5 8 20 48 48 27 23 36 36 29 14 14 4 1 0 0 4 7 4 4 1 nan nan nan nan nan 6 6 11 14 18 18 20 26 34 34 39 40 48 55 55 69 80 89 89 94 92 90 90 96 115 115 145 178 212 212 229
38 37 30 28 28 41 37 27 20 20 31 28 23 23 23 24 25 25 18 19 19 15 17 15 15 14 8 8 25 25 27 35 40 40 31 20 31 31 49 17 17 4 1 2 2 5 7 3 3 0 nan nan nan nan 1 5 5 9 13 16 16 20 27 33 33 35 37 46 53 53 65 76 78 78 86 83 95 95 108 139 139 174 194 204 204 191
26 37 37 31 31 38 28 17 17 17 22 22 22 22 28 33 32 32 31 27 27 26 25 19 19 12 9 11 23 23 46 43 37 37 48 33 33 33 50 27 27 5 2 2 2 5 7 3 3 1 nan nan nan nan 0 3 3 6 12 17 17 21 27 33 33 33 31 42 54 54 61 69 74 74 77 83 106 106 144 169 169 183 174 145 145 134
17 21 20 16 16 18 20 23 20 20 19 22 26 26 32 40 40 40 51 60 60 55 44 28 28 29 24 28 33 33 62 61 55 55 77 44 28 28 41 30 30 7 4 4 4 11 6 5 5 0 nan nan nan nan nan 1 1 5 11 18 18 21 26 27 27 30 33 44 55 55 62 65 67 67 83 105 144 144 170 174 174 166 127 112 112 107
7 8 26 15 15 16 17 24 27 27 33 47 48 48 47 65 67 67 58 70 70 65 63 46 46 44 64 67 72 72 110 105 69 69 104 70 31 31 24 28 28 16 8 12 12 14 5 5 5 1 nan nan nan nan nan 0 0 3 12 18 18 21 22 23 23 26 35 42 52 52 57 63 74 74 101 128 170 170 170 169 169 136 108 105 105 104
13 15 17 26 26 27 25 33 50 50 63 64 41 41 47 63 78 78 75 86 86 92 78 58 58 70 72 79 113 113 143 64 22 22 71 71 37 37 26 39 39 19 13 14 14 12 5 2 2 0 nan nan nan nan nan nan nan 3 13 19 19 19 21 20 20 20 24 37 47 47 55 64 86 86 103 140 160 160 163 141 141 114 109 111 111 108
33 28 34 52 52 55 63 75 90 90 83 57 37 37 52 55 66 66 92 99 99 96 81 74 74 82 71 72 90 90 137 84 41 41 42 28 22 22 48 51 51 31 12 12 12 7 5 0 0 nan nan nan nan nan nan nan nan 4 14 20 20 17 17 16 16 18 22 29 37 37 54 68 85 85 98 125 143 143 138 126 126 114 111 104 104 96
58 59 70 85 85 87 79 56 54 54 72 60 56 56 57 58 52 52 58 58 58 61 77 94 94 76 63 42 70 70 133 105 58 58 37 29 35 35 86 59 59 16 5 13 13 10 3 nan nan nan nan nan nan nan nan nan nan 1 8 15 15 17 15 16 16 19 22 27 36 36 50 69 80 80 94 110 124 124 120 113 113 105 101 100 100 91
67 81 76 80 80 60 45 48 62 62 65 43 39 39 48 48 45 45 55 63 63 64 72 67 67 50 58 79 87 87 119 109 61 61 36 28 50 50 73 46 46 9 9 18 18 7 0 nan nan nan nan nan nan nan nan nan nan nan 3 8 8 11 13 13 13 15 19 25 34 34 53 65 74 74 84 96 110 110 103 95 95 97 92 90 90 80
68 79 60 53 53 42 19 20 22 22 14 14 16 16 28 28 31 31 45 85 85 85 74 64 64 55 83 105 120 120 154 112 30 30 25 28 40 40 55 20 20 8 8 7 7 2 nan nan nan nan nan nan nan nan nan nan nan nan 1 5 5 7 9 12 12 15 17 23 33 33 41 56 60 60 74 83 93 93 82 81 81 85 83 80 80 63
59 46 44 43 43 51 41 37 37 37 18 10 21 21 26 28 30 30 44 84 84 101 86 61 61 46 67 68 86 86 168 164 105 105 43 31 43 43 60 9 9 2 4 4 4 2 0 nan nan nan nan 2 0 0 nan nan nan nan nan 2 2 4 8 11 11 15 16 21 26 26 33 42 47 47 53 65 69 69 73 71 71 75 71 63 63 50
50 48 50 47 47 43 41 41 43 43 59 55 46 46 45 48 40 40 31 48 48 80 72 50 50 28 35 49 80 80 158 163 103 103 78 46 58 58 53 2 2 1 4 5 5 5 2 nan nan nan nan 4 5 5 nan nan nan nan nan 1 1 2 6 10 10 14 16 18 23 23 22 23 27 27 35 42 50 50 59 64 64 65 62 44 44 39
36 34 32 33 33 32 34 35 41 41 48 67 81 81 74 60 45 45 32 35 35 57 52 35 35 33 39 44 76 76 127 144 97 97 59 26 50 50 14 3 3 5 5 4 4 1 0 nan nan nan nan 1 3 3 nan nan nan nan 0 0 0 2 5 8 8 13 16 18 18 18 16 17 18 18 17 26 41 41 50 57 57 60 47 26 26 11
22 22 19 17 17 18 17 22 30 30 46 66 78 78 70 59 50 50 47 55 55 56 55 53 53 50 72 73 76 76 106 38 10 10 12 14 37 37 9 11 11 11 3 0 0 nan nan nan nan 0 0 1 nan nan nan 0 0 0 0 1 1 3 4 7 7 11 14 16 14 14 12 11 10 10 12 20 30 30 42 50 50 51 36 16 16 7
11 13 11 10 10 7 6 14 31 31 53 71 72 72 59 54 44 44 41 51 51 40 41 62 62 71 72 57 78 78 80 5 2 2 4 9 17 17 17 18 18 6 1 0 0 0 nan 2 2 5 5 1 0 0 0 1 1 0 1 2 2 2 5 6 6 9 12 12 12 12 8 7 7 7 6 11 20 20 30 43 43 37 15 8 8 7
7 6 5 5 5 6 8 16 34 34 48 61 52 52 52 45 41 41 33 25 25 28 27 44 44 59 73 77 84 84 54 8 8 8 6 15 23 23 23 20 20 10 2 4 4 3 2 2 2 8 5 1 nan nan nan 0 0 1 1 2 2 6 7 6 6 8 10 8 6 6 5 5 5 5 5 6 11 11 21 36 36 32 11 9 9 7
6 5 6 10 10 13 24 40 45 45 28 20 15 15 18 15 13 13 10 8 8 9 17 30 30 38 48 37 19 19 5 5 24 24 17 15 24 24 32 37 37 41 47 30 30 20 11 7 7 2 0 nan nan nan 1 2 2 2 2 5 5 9 13 14 14 12 8 4 3 3 3 3 4 4 4 4 5 5 8 16 16 24 17 11 11 9
4 6 7 15 15 18 36 63 49 49 20 9 9 9 7 10 13 13 13 12 12 10 15 17 17 24 30 36 19 19 4 2 7 7 16 12 24 24 31 35 35 30 21 16 16 18 14 7 7 2 0 0 3 3 5 5 5 4 7 10 10 12 16 17 17 13 7 3 3 3 3 2 3 3 3 3 4 4 7 9 9 19 23 10 10 9
4 7 13 21 21 25 45 46 24 24 9 6 8 8 9 11 13 13 17 11 11 12 11 9 9 8 9 9 8 8 2 nan 0 0 3 5 10 10 10 10 10 8 8 8 8 6 5 3 3 2 1 2 6 6 9 8 8 10 15 13 13 10 13 12 12 9 6 4 3 3 2 2 4 4 2 2 3 3 5 8 8 14 16 12 12 11
7 11 22 28 28 29 34 18 10 10 5 6 9 9 9 8 9 9 11 11 11 11 9 6 6 4 3 3 2 2 0 nan nan nan nan 1 1 1 1 1 1 2 3 2 2 2 1 0 0 1 1 3 5 5 12 14 14 17 18 14 14 9 10 10 10 8 6 3 2 2 2 1 1 1 0 2 3 3 6 8 8 9 11 14 14 14
12 19 35 37 37 31 21 16 11 11 9 10 7 7 8 9 9 9 8 9 9 9 7 3 3 1 0 0 nan nan nan nan nan nan nan nan nan nan nan nan nan 0 0 0 0 0 0 0 0 1 3 5 7 7 15 22 22 23 13 10 10 10 12 10 10 7 5 3 3 3 3 2 1 1 1 3 5 5 5 5 5 6 8 12 12 14
34 36 51 33 33 24 14 16 16 16 14 8 6 6 8 7 10 10 9 9 9 8 4 2 2 0 nan nan nan nan nan nan 0 0 0 nan nan nan nan nan nan nan nan 0 0 0 0 0 0 1 3 9 15 15 18 17 17 13 10 10 10 8 12 10 10 8 6 4 4 4 3 2 2 2 3 5 3 3 3 4 4 4 7 9 9 11
55 58 52 31 31 18 16 21 21 21 10 7 6 6 8 8 12 12 10 11 11 9 5 2 2 2 nan nan 0 0 2 2 3 3 2 0 nan nan nan nan nan nan 1 3 3 3 3 3 3 4 4 6 13 13 15 10 10 8 9 10 10 11 11 12 12 8 5 4 4 4 3 3 2 2 3 2 0 0 0 0 0 1 5 6 6 8
62 48 41 38 38 28 24 20 9 9 6 6 6 6 7 7 11 11 10 9 9 6 4 2 2 3 nan nan nan nan 1 3 4 4 2 1 nan nan nan 0 0 1 4 7 7 5 4 5 5 6 5 5 5 5 6 8 8 7 9 12 12 10 9 11 11 8 5 4 3 3 3 2 2 2 2 0 0 0 nan 0 0 1 2 3 3 5
43 30 34 29 29 16 16 10 5 5 4 4 4 4 4 4 6 6 6 2 2 1 nan nan nan nan 2 1 0 0 0 4 3 3 3 2 2 2 1 2 2 2 3 5 5 4 5 5 5 6 7 6 6 6 5 6 6 11 18 12 12 6 6 8 8 6 4 3 4 4 3 2 2 2 0 0 nan nan 0 0 0 1 2 3 3 3
33 17 10 6 6 6 5 2 2 2 3 3 2 2 1 2 2 2 0 0 0 nan nan nan nan nan nan 0 1 1 0 1 2 2 8 6 4 4 5 5 5 4 3 2 2 3 4 5 5 5 5 7 9 9 7 8 8 19 26 12 12 6 5 7 7 6 4 3 4 4 4 3 1 1 nan nan nan nan 0 1 1 2 4 4 4 4
29 10 4 2 2 0 0 0 1 1 3 4 1 1 1 0 0 0 0 nan nan nan nan nan nan nan nan nan nan nan 1 1 5 5 12 15 13 13 12 8 8 4 2 1 1 1 5 6 6 8 8 8 12 12 8 8 8 16 17 10 10 7 4 3 3 4 3 5 3 3 5 1 nan nan nan nan nan nan 1 2 2 5 5 4 4 4
11 4 2 1 1 0 nan 0 1 1 1 0 nan nan nan 0 0 0 nan nan nan nan nan nan nan nan nan nan nan nan 1 3 6 6 13 19 19 19 16 9 9 5 2 1 1 1 5 15 15 13 17 17 13 13 8 9 9 11 10 9 9 4 1 1 1 2 4 5 4 4 3 1 0 0 0 0 0 0 1 3 3 8 8 6 6 7
5 2 1 0 0 0 0 0 0 0 nan nan nan nan nan 0 nan nan nan nan nan nan nan nan nan nan nan nan nan nan 1 5 7 7 13 17 16 16 14 9 9 5 2 0 0 1 5 14 14 24 29 20 9 9 9 10 10 8 6 6 6 5 3 3 3 4 4 4 4 4 2 1 1 1 1 1 1 1 2 2 2 3 7 9 9 7
3 1 0 0 0 0 nan nan nan nan nan nan nan nan nan nan nan nan nan nan nan nan nan nan nan nan nan nan 1 1 2 4 6 6 11 19 27 27 26 12 12 7 3 1 1 2 4 6 6 13 15 11 15 15 20 14 14 9 6 5 5 4 4 6 6 6 4 4 3 3 2 2 2 2 1 1 1 1 1 1 1 2 4 6 6 6
0 0 nan nan nan nan nan nan nan nan nan nan nan nan nan nan nan nan nan nan nan nan nan nan nan 0 0 1 2 2 3 3 4 4 6 13 16 16 19 15 15 8 5 3 3 2 3 8 8 12 5 7 13 13 12 9 9 5 5 5 5 4 4 5 5 5 5 3 2 2 3 3 3 3 2 2 1 1 1 1 1 2 2 3 3 5
nan nan nan nan nan nan nan nan nan nan nan nan nan nan nan nan nan nan nan nan nan nan nan nan nan 1 3 3 4 4 4 4 3 3 4 5 7 7 9 10 10 10 8 3 3 2 8 12 12 4 3 8 6 6 5 5 5 3 4 5 5 5 4 3 3 4 3 3 2 2 3 3 4 4 3 2 1 1 0 1 1 1 2 3 3 3
nan nan nan nan nan nan nan nan nan nan nan nan nan nan nan nan nan nan nan nan nan nan nan nan nan 2 4 5 5 5 6 5 3 3 4 3 3 3 4 3 3 4 9 10 10 9 10 5 5 0 2 9 6 6 4 4 4 4 5 6 6 5 3 3 3 3 3 2 3 3 3 4 5 5 5 3 1 1 0 0 0 1 2 2 2 2
nan nan nan nan nan nan nan nan nan nan nan nan nan nan nan nan 0 0 nan nan nan nan 0 1 1 3 4 5 5 5 8 5 3 3 3 2 2 2 2 2 2 0 1 12 12 23 26 10 10 nan nan 9 6 6 3 2 2 3 4 5 5 4 3 3 3 2 2 2 3 3 5 6 7 7 5 3 1 1 0 0 0 1 1 2 2 2
nan nan nan nan nan nan nan nan nan nan nan nan nan nan nan nan nan nan nan nan nan 0 2 4 4 4 5 5 6 6 5 4 2 2 2 2 2 2 3 3 3 2 1 1 1 7 24 32 32 4 0 12 6 6 1 0 0 1 2 2 2 3 3 3 3 2 2 2 3 3 6 6 7 7 6 4 2 2 1 1 1 1 2 2 2 3
0 0 0 0 0 nan nan nan nan nan nan nan nan nan nan nan nan nan nan nan nan 1 3 5 5 6 7 7 7 7 8 4 3 3 3 2 3 3 3 4 4 4 3 2 2 3 5 13 13 27 33 7 0 0 0 0 0 0 1 1 1 3 2 2 2 2 3 2 4 4 8 9 7 7 5 5 3 3 1 1 1 0 1 1 1 3